P/2001 R6 ( LINEAR-Skiff ) 2010

Japanese version
Home page
Updated on November 13, 2010

---------------------------------------------------------------------

* Profile

* Orbital Elements

The following orbital elements are taken from MPC 59599:

Epoch 2010 Mar. 25.0 TT = JDT 2455280.5
T 2010 Mar. 26.1130 TT                                  MPC
q   2.178638             (2000.0)            P               Q
n   0.1157025      Peri.  308.4487      +0.9293335      -0.2456021
a   4.171006       Node    67.3236      +0.3551309      +0.7989794
e   0.477671       Incl.   17.3864      -0.1011006      +0.5489185
P   8.52
From 100 observations 2001 Aug. 19-2002 Feb. 1, mean residual 0".7.

* Magnitudes Graph

        m1 = 6.8 + 5 log d + 30.0 log r

---------------------------------------------------------------------

The orbital elements are published at the MPC Ephemerides and Orbital Elements.
The magnitudes graphs are made with Comet for Windows.

---------------------------------------------------------------------

Copyright(C) Seiichi Yoshida (comet@aerith.net). All rights reserved.